Tracking 19242 objects as of 16-Aug-2018
HD Live streaming from Space Station
objects crossing your sky now

SLOSHSAT

Track SLOSHSAT now!
SLOSHSAT is classified as:


NORAD ID: 28544
Int'l Code: 2005-005C
Perigee: 298.2 km
Apogee: 32,789.5 km
Inclination: 7.1 °
Period: 575.4 minutes
Semi major axis: 22914 km
RCS: 0.5011 m2 (medium)
Launch date: February 12, 2005
Source: European Space Agency (ESA)
Launch site: FRENCH GUIANA (FRGUI)
aabbcc
Your satellite tracking list
Your tracking list is empty




NASA's NSSDC Master Catalog

Two Line Element Set (TLE):
1 28544U 05005C   18228.20532660  .00000067  00000-0  12507-3 0  9999
2 28544   7.0729 288.6518 7089581  94.5184 342.0118  2.50280763117424
Source of the keplerian elements: AFSPC